Location: Bonaustraße
(48.4603°N, 11.9280°E)
Time: 06:41:46
(UTC+01:00)

X-37B - Pass Details

Date: 24 January 2021
Orbit: 383 x 391 km, 45.0° (Epoch: 27 February)

Event Time Altitude Azimuth Distance (km) Brightness Sun altitude
Rises 17:49:22 0° 243° (WSW) 2,266 6.7 -8.5°
Reaches altitude 10° 17:51:31 10° 235° (SW) 1,415 4.8 -8.9°
Maximum altitude 17:54:27 35° 167° (SSE) 650 1.8 -9.3°
Enters shadow 17:57:11 12° 101° (E) 1,333 2.8 -9.8°
